Probability
0 0 0 0 0 0 0 0 0 0 0 0 0 0 0 0 0 0 0 0 0 0 0 0 0 0 0 0 0 0 0 0 0 0 0 0 0 0 0 0 0 0 0
0 0 0 0 0 0 0 0 0 0 0 0 0 0 0 0 0 0 0 0 0 0 0 0 0 0 0 0 0 0 0 0 0 0 0 0 0 0 0 0 0 0 0
0 0 0 0 0 0 0 0 0 0 0 0 0 0 0 0 0 0 0 0 0 0 0 0 0 0 0 0 0 0 0 0 0 0 0 0 0 0 0 0 0 0 0
0 0 0 0 0 0 0 0 0 0 0 0 0 0 0 0 0 0 0 0 0 0 0 0 0 0 0 0 0 0 0 0 0 0 0 0 0 0 0 0 0 0 0
0 0 0 0 0 0 0 0 0 0 0 0 0 0 0 0 0 0 0 0 0 0 0 0 0 0 0 0 0 0 0 0 0 0 0 0 0 0 0 0 0 0 0
0 0 0 0 0 0 0 0 0 0 0 0 0 0 0 0 0 0 0 0 0 0 0 0 0 0 0 0 0 0 0 0 0 0 0 0 0 0 0 0 0 0 0
0 0 0 0 0 0 0 0 0 0 0 0 0 0 0 0 0 0 0 0 0 0 0 0 0 0 0 0 0 0 0 0 0 0 0 0 0 0 0 0 0 0 0
0 0 0 0 0 0 0 0 0 0 0 0 0 0 0 0 0 0 0 0 0 0 0 0 0 0 0 0 0 0 0 0 0 0 0 0 0 0 0 0 0 0 0
0 0 0 0 0 0 0 0 0 0 0 0 0 0 0 0 0 0 0 0 0 0 0 0 0 0 0 0 0 0 0 0 0 0 0 0 0 0 0 0 0 0 0
0 0 0 0 0 0 0 0 0 0 0 0 0 0 0 0 0 0 0 0 0 0 0 0 0 0 0 0 0 0 0 0 0 0 0 0 0 0 0 0 0 0 0
0 0 0 0 0 0 0 0 0 0 0 0 0 0 0 0 0 0 0 0 0 0 0 0 0 0 0 0 0 0 0 0 0 0 0 0 0 0 0 0 0 0 0
0 0 0 0 0 0 0 0 0 0 0 0 0 0 0 0 0 0 0 0 0 0 0 0 0 0 0 0 0 0 0 0 0 0 0 0 0 0 0 0 0 0 0
0 0 0 0 0 0 0 0 0 0 0 0 0 0 0 0 0 0 0 0 0 0 0 0 0 0 0 0 0 0 0 0 0 0 0 0 0 0 0 0 0 0 0
0 0 0 0 0 0 0 0 0 0 0 0 0 0 0 0 0 0 0 0 0 0 0 0 0 0 0 0 0 0 0 0 0 0 0 0 0 0 0 0 0 0 0
0 0 0 0 0 0 0 0 0 0 0 0 0 0 0 0 0 0 0 0 0 0 0 0 0 0 0 0 0 0 0 0 0 0 0 0 0 0 0 0 0 0 0
0 0 0 0 0 0 0 0 0 0 0 0 0 0 0 0 0 0 0 0 0 0 0 0 0 0 0 0 0 0 0 0 0 0 0 0 0 0 0 0 0 0 0
0 0 0 0 0 0 0 0 0 0 0 0 0 0 0 0 0 0 0 0 0 0 0 0 0 0 0 0 0 0 0 0 0 0 0 0 0 0 0 0 0 0 0
0 0 0 0 0 0 0 0 0 0 0 0 0 0 0 0 0 0 0 0 0 0 0 0 0 0 0 0 0 0 0 0 0 0 0 0 0 0 0 0 0 0 0
0 0 0 0 0 0 0 0 0 0 0 0 0 0 0 0 0 0 0 0 0 0 0 0 0 0 0 0 0 0 0 0 0 0 0 0 0 0 0 0 0 0 0
0 0 0 0 0 0 0 0 0 0 0 0 0 0 0 0 0 0 0 0 0 0 0 0 0 0 0 0 0 0 0 0 0 0 0 0 0 0 0 0 0 0 0
0 0 0 0 0 0 0 0 0 0 0 0 0 0 0 0 0 0 0 0 0 0 0 0 0 0 0 0 0 0 0 0 0 0 0 0 0 0 0 0 0 0 0
0 0 0 0 0 0 0 0 0 0 0 0 0 0 0 0 0 0 0 0 0 0 0 0 0 0 0 0 0 0 0 0 0 0 0 0 0 0 0 0 0 0 0
0 0 0 0 0 0 0 0 0 0 0 0 0 0 0 0 0 0 0 0 0 0 0 0 0 0 0 0 0 0 0 0 0 0 0 0 0 0 0 0 0 0 0
0 0 0 0 0 0 0 0 0 0 0 0 0 0 0 0 0 0 0 0 0 0 0 0 0 0 0 0 0 0 0 0 0 0 0 0 0 0 0 0 0 0 0
0 0 0 0 0 0 0 0 0 0 0 0 0 0 0 0 0 0 0 0 0 0 0 0 0 0 0 0 0 0 0 0 0 0 0 0 0 0 0 0 0 0 0
0 0 0 0 0 0 0 0 0 0 0 0 0 0 0 0 0 0 0 0 0 0 0 0 0 0 0 0 0 0 0 0 0 0 0 0 0 0 0 0 0 0 0
Wind_Speed
1 1 2 2 3 4 4 5 5 6 7 7 8 9 9 9 8 7 8 9 9 9 8 8 8 8 7 6 6 7 8 8 14 8 5 6 8 10 9 10 9 12 12
2 1 1 2 2 3 4 5 5 6 6 7 7 8 9 10 9 9 10 10 10 11 11 9 10 8 9 7 7 8 8 8 11 14 7 6 10 10 12 12 10 11 9
4 3 2 3 3 4 5 5 6 6 7 7 7 8 9 10 10 10 10 11 11 11 11 11 11 9 11 8 9 9 7 8 9 11 10 6 7 5 7 8 8 7 8
4 3 3 3 4 5 5 6 6 7 7 8 8 9 9 10 11 12 12 12 12 12 12 12 12 11 12 11 10 10 9 9 9 11 10 6 6 4 6 8 8 9 9
3 2 3 4 4 5 6 7 7 8 9 9 11 11 10 10 10 11 12 12 13 15 14 13 13 16 19 16 13 10 9 10 9 10 11 7 8 6 8 7 11 9 10
1 2 4 5 6 6 7 9 10 11 11 12 13 13 15 14 21 27 23 16 16 17 18 16 15 15 20 26 28 26 21 15 13 12 12 13 12 11 7 8 9 9 11
1 3 4 4 5 6 9 10 12 13 14 15 15 15 17 19 27 29 28 21 19 18 19 18 17 15 15 14 20 27 25 27 28 19 18 19 14 9 11 12 12 13 10
1 2 3 3 4 7 9 11 12 12 13 14 16 16 18 19 27 29 29 22 19 20 19 20 20 20 18 20 18 18 18 19 21 17 18 18 14 9 11 15 15 14 8
1 1 2 3 5 7 9 11 11 12 13 13 14 14 15 17 26 29 29 16 16 19 19 19 20 20 26 30 24 21 21 20 24 30 30 28 28 25 16 9 12 11 13
1 2 3 4 5 8 10 11 10 11 13 14 14 13 15 15 24 28 28 13 14 15 15 17 21 24 27 29 21 19 21 20 16 15 20 24 22 22 26 18 15 15 10
1 2 3 5 6 8 9 9 10 12 13 13 15 14 14 15 21 26 27 14 13 14 14 13 14 26 30 31 29 21 25 24 17 16 16 16 14 13 14 16 16 16 15
1 3 5 6 7 7 7 9 9 10 12 12 12 13 11 13 17 22 27 27 26 18 16 15 16 29 32 33 27 27 34 31 17 15 15 15 14 13 12 13 16 17 16
2 5 6 7 6 7 7 10 9 8 9 10 11 12 12 11 14 25 27 30 31 21 17 26 31 35 34 25 28 33 27 18 16 17 17 16 13 11 10 10 12 14 14
4 5 6 6 6 6 6 7 7 8 9 10 12 13 13 12 12 12 12 15 21 21 19 22 32 34 30 27 22 20 16 15 17 17 15 13 9 9 10 10 11 11 11
4 6 6 6 6 6 7 7 10 10 12 15 13 13 14 14 16 28 24 17 15 16 19 15 13 13 13 13 13 13 13 14 16 15 14 13 11 11 11 10 11 10 11
4 4 4 5 5 6 7 10 16 19 24 27 26 23 17 23 31 32 32 33 34 32 23 13 13 12 13 13 13 13 12 13 14 12 11 11 11 11 10 9 10 11 11
5 5 4 5 5 6 7 8 12 16 22 24 24 26 25 28 30 30 30 30 28 26 13 11 12 13 14 14 12 12 12 12 12 11 10 9 9 9 9 10 10 10 10
5 6 5 5 5 6 7 8 8 10 13 14 18 24 26 28 29 28 28 22 14 13 9 12 13 14 14 13 12 11 11 11 11 11 10 9 9 9 9 10 10 10 9
5 4 4 4 5 6 7 8 8 9 10 11 12 15 19 24 25 23 21 10 11 12 12 12 13 14 13 12 12 11 10 10 11 10 9 8 8 8 9 9 9 11 9
5 7 5 4 4 5 6 6 7 8 9 9 10 11 12 12 11 13 11 9 10 11 12 13 13 14 14 12 10 8 9 9 10 9 8 6 6 6 7 9 9 10 9
4 4 5 4 4 5 5 5 6 7 8 9 9 12 19 10 10 11 11 10 10 11 12 13 13 13 13 12 10 8 7 6 5 5 4 3 3 3 4 6 7 8 8
4 3 3 4 4 4 4 5 5 6 7 9 9 11 17 9 8 9 10 10 10 9 10 11 11 11 12 12 11 11 9 7 6 4 2 2 1 2 4 5 6 7 8
3 3 4 4 4 5 5 4 5 5 6 7 8 8 8 8 9 9 10 10 10 10 10 10 11 11 12 11 10 10 9 8 7 6 5 5 5 5 5 6 8 8 9
3 3 3 3 3 3 4 4 5 5 5 6 6 6 7 8 8 10 10 10 10 10 10 10 11 15 18 13 10 9 9 9 8 7 8 7 6 6 6 7 7 9 9
3 3 3 3 3 4 4 4 5 5 5 5 5 6 7 7 8 9 9 9 11 11 12 11 10 12 17 18 13 10 12 14 12 8 7 7 8 8 8 9 8 9 9
3 3 3 3 3 4 4 4 5 5 5 5 5 6 6 7 7 8 8 9 10 10 10 10 13 16 17 14 15 14 12 13 13 12 8 7 8 8 8 9 11 10 11
Wind_Direction
80 51 28 3 358 354 348 339 333 329 331 331 329 327 325 322 324 323 317 315 313 308 303 292 282 275 271 262 252 251 250 245 262 261 230 218 211 216 217 212 208 210 217
205 206 275 305 317 321 316 312 313 311 310 309 310 312 313 315 315 312 308 306 301 300 299 296 289 285 275 268 259 253 251 246 257 268 252 222 219 215 215 213 208 210 212
208 216 250 277 289 298 301 301 301 298 297 295 293 294 297 300 303 302 299 296 291 288 288 287 286 284 282 275 266 263 257 250 248 260 260 230 224 211 210 215 207 204 207
208 224 261 282 296 304 308 308 304 299 296 293 289 286 286 288 291 291 292 291 288 285 282 279 277 274 275 275 274 269 264 258 251 255 257 233 220 206 200 205 207 203 210
212 256 291 310 318 322 322 319 315 310 307 302 300 297 293 289 288 289 291 289 288 287 283 278 274 271 269 272 272 270 265 264 259 257 256 236 220 206 212 195 210 203 216
245 311 330 334 335 336 333 330 323 317 313 309 305 302 299 297 302 304 302 297 291 287 285 284 280 275 274 276 275 273 267 262 258 255 257 249 240 221 212 204 205 197 220
0 336 338 344 346 343 334 325 318 314 310 306 304 303 301 302 305 305 303 300 293 288 287 285 283 280 280 278 278 277 274 268 262 256 254 252 249 224 212 215 211 212 217
356 339 3 10 345 328 320 312 309 307 305 304 305 304 300 301 307 308 306 300 291 287 286 285 284 283 281 282 280 273 267 264 261 258 256 257 251 235 220 220 217 221 220
350 22 29 355 323 314 307 304 304 303 301 298 296 297 298 302 304 303 299 292 286 286 286 284 283 283 282 282 279 274 272 268 268 262 255 256 255 249 233 220 217 212 223
81 7 344 322 305 299 298 299 298 296 295 297 296 296 294 293 296 298 298 291 288 288 288 286 285 285 286 286 280 274 270 268 265 264 261 260 257 252 242 227 219 220 221
69 329 308 299 291 288 287 289 292 293 294 293 293 291 288 287 291 295 295 292 286 286 285 286 285 289 289 289 285 279 276 277 270 260 256 252 246 241 236 231 224 223 224
324 299 290 283 282 285 280 286 286 288 292 291 291 291 288 287 287 290 291 290 289 286 284 284 281 283 283 283 282 278 282 282 274 264 253 246 240 236 232 228 227 227 229
299 287 279 274 267 272 278 289 291 287 289 293 294 293 291 286 284 289 289 289 287 282 275 274 277 281 283 283 280 279 280 276 269 261 253 246 238 230 222 223 226 229 229
279 280 278 278 280 277 278 285 287 289 289 289 288 288 289 288 288 286 280 280 279 278 276 274 275 276 275 273 272 273 269 267 263 256 252 249 237 222 217 215 220 220 222
268 271 280 281 280 285 283 278 284 275 276 288 290 293 299 300 296 300 302 299 292 284 287 278 272 266 259 257 256 256 257 264 264 250 244 241 234 224 218 210 210 211 213
268 277 283 288 286 289 294 296 294 297 300 301 303 304 304 303 308 311 313 312 311 307 302 291 288 283 275 268 261 257 255 259 266 260 245 237 230 223 217 207 205 205 207
254 270 278 286 290 292 294 298 303 308 308 309 312 315 315 317 320 321 322 324 324 325 318 304 296 290 284 276 266 260 258 258 263 264 254 240 232 222 214 208 202 200 199
256 263 267 268 277 284 288 291 292 299 307 310 316 320 324 326 326 331 336 339 329 327 312 305 301 296 288 280 270 261 258 260 263 263 258 247 232 220 212 205 199 195 190
260 260 259 264 272 280 288 292 293 294 296 301 309 319 324 325 331 337 343 335 321 320 317 311 307 305 296 283 271 262 256 256 259 260 258 248 233 218 210 201 193 184 179
254 267 274 274 282 286 289 292 297 299 302 305 311 317 318 327 336 333 335 328 325 321 319 318 317 316 316 307 291 271 260 257 257 255 252 243 228 214 203 191 185 183 182
249 263 275 278 273 277 283 288 294 298 301 305 308 314 334 340 326 325 328 330 329 326 325 323 323 326 330 333 330 319 302 288 277 267 254 236 211 195 182 176 174 171 165
240 252 260 266 270 276 280 284 288 292 296 303 311 318 332 333 325 326 328 329 328 326 325 324 326 331 333 337 342 345 348 348 343 342 355 24 71 110 127 137 144 145 143
233 252 263 267 272 281 286 283 284 286 293 301 309 317 323 326 327 328 329 328 329 331 332 332 334 339 344 343 346 351 354 355 357 9 34 51 61 74 93 110 120 128 133
233 245 259 272 279 283 287 289 288 292 297 301 305 311 317 321 321 323 325 327 330 332 336 338 339 340 345 350 351 352 358 5 7 18 39 59 66 73 84 94 102 114 121
229 239 250 261 272 279 285 288 289 293 296 299 303 309 313 314 316 319 323 326 328 330 335 338 340 342 344 347 352 358 9 21 26 29 40 56 68 75 84 90 97 103 108
232 239 245 250 258 265 273 281 288 294 296 299 300 301 304 308 310 314 318 324 327 327 330 333 336 339 343 349 357 9 20 33 37 38 44 58 70 79 86 91 97 100 104